DW8722 Weather Reports


time (UTC)temp
F
wind
direction
speed
knots
gust
knots
rain 1hr
in
rain 24hr
in
rain mn
in
humidity
%
barometer
mb
20260510132323 66 148 0.0 3.5 0.00 1.25 1.25 90 1013.8
20260510131308 66 132 0.0 0.0 0.00 1.25 1.25 89 1013.8
20260510130238 65 134 0.9 6.1 0.00 1.25 1.25 90 1013.7
20260510125257 65 100 0.0 2.6 0.00 1.25 1.25 90 1013.7
20260510124233 65 27 0.0 0.0 0.00 1.25 1.25 90 1013.7
20260510123214 64 118 1.7 5.2 0.00 1.25 1.25 90 1013.7
20260510122210 64 130 2.6 6.1 0.00 1.25 1.25 91 1013.3
20260510121226 64 141 0.9 6.1 0.00 1.25 1.25 91 1012.8
20260510120209 64 109 0.9 7.0 0.00 1.25 1.25 91 1013.5
20260510115204 64 134 1.7 7.0 0.00 1.25 1.25 91 1013.3
20260510114211 64 155 2.6 7.0 0.00 1.25 1.25 91 1013.2
20260510113142 64 149 1.7 7.0 0.00 1.25 1.25 91 1013.3
20260510112157 64 104 0.0 4.3 0.00 1.25 1.25 91 1013.1
20260510111203 64 100 0.0 1.7 0.00 1.25 1.25 91 1013.2
20260510110215 64 103 0.0 0.0 0.00 1.25 1.25 91 1013.2
20260510105236 64 149 1.7 6.1 0.00 1.25 1.25 91 1012.9
20260510104226 64 157 0.0 0.0 0.00 1.25 1.25 91 1013.0
20260510103221 64 58 0.0 0.0 0.00 1.25 1.25 91 1012.8
20260510102227 65 66 0.9 9.6 0.00 1.25 1.25 91 1012.7
20260510101222 65 121 2.6 9.6 0.00 1.25 1.25 91 1012.1
20260510100205 64 94 0.9 5.2 0.00 1.25 1.25 91 1012.8
20260510094042 64 99 5.2 17.4 0.08 1.25 1.25 91 1012.3
20260510093104 65 82 8.7 17.4 0.12 1.23 1.24 91 1011.6
20260510092042 65 89 3.5 7.8 0.09 1.22 1.22 91 1013.9
20260510091012 65 55 0.9 7.0 0.51 1.19 1.20 91 1013.9
20260510084842 65 9 7.0 13.9 2.70 0.72 0.73 90 1014.7
20260510083826 66 11 7.0 14.8 1.93 0.23 0.25 88 1015.2
20260510082850 67 20 1.7 14.8 0.00 0.06 0.06 87 1012.7
20260510081825 67 302 0.0 0.0 0.00 0.06 0.06 86 1012.1
20260510080817 67 28 2.6 12.2 0.00 0.06 0.06 85 1011.6
20260510075756 68 5 6.1 11.3 0.00 0.06 0.06 85 1011.5
20260510074745 67 19 7.0 14.8 0.00 0.06 0.06 86 1011.6
20260510073746 67 11 5.2 14.8 0.00 0.06 0.06 88 1010.9
20260510072726 68 5 7.0 13.0 0.00 0.06 0.06 88 1010.8
20260510071708 69 38 3.5 10.4 0.00 0.06 0.06 87 1010.1
20260510065524 74 52 0.9 6.1 0.26 0.04 0.05 89 1011.2
20260510064529 74 49 0.0 3.5 0.00 0.00 0.00 89 1011.9
20260510063530 74 348 2.6 9.6 0.00 0.00 0.00 89 1011.9
20260510060202 74 338 3.5 9.6 0.00 0.00 0.00 89 1012.0
20260510055212 74 343 4.3 8.7 0.00 0.00 0.00 90 1011.8
20260510054212 74 25 2.6 7.0 0.00 0.00 0.00 89 1011.2
20260510053216 74 57 1.7 7.8 0.00 0.00 0.00 89 1010.3
20260510052234 74 109 2.6 7.8 0.00 0.00 0.00 89 1009.6
20260510051212 74 109 3.5 7.8 0.00 0.00 0.00 89 1009.5
20260510050146 73 119 4.3 7.8 0.00 0.00 0.00 89 1009.3
20260510045126 73 123 2.6 7.0 0.00 0.00 0.00 88 1009.1
20260510044054 73 130 3.5 10.4 0.00 0.00 0.00 88 1009.1
20260510043037 72 142 4.3 10.4 0.00 0.00 0.00 88 1008.8
20260510040932 72 121 3.5 8.7 0.00 0.00 0.00 86 1008.8
20260510035932 72 142 3.5 7.0 0.00 0.00 0.00 85 1008.7
20260510034947 72 127 0.9 7.0 0.00 0.00 0.00 83 1008.9
20260510033913 72 132 0.9 5.2 0.00 0.00 0.00 82 1008.9
20260510032923 72 115 0.9 4.3 0.00 0.00 0.00 81 1008.8
20260510031927 72 101 1.7 6.1 0.00 0.00 0.00 81 1008.8
20260510030915 72 109 1.7 6.1 0.00 0.02 0.00 80 1008.7
20260510025905 73 107 0.9 4.3 0.00 0.46 0.00 79 1008.7
20260510024852 73 95 0.0 0.0 0.00 0.46 0.00 77 1008.9
20260510023839 74 86 0.0 0.0 0.00 0.46 0.00 76 1008.9
20260510021707 74 83 0.0 0.0 0.00 0.46 0.00 76 1008.6
20260510020725 75 81 0.0 0.0 0.00 0.46 0.00 75 1008.6
20260510015706 75 88 0.0 0.0 0.00 0.46 0.00 75 1008.6
20260510014638 76 86 0.0 0.0 0.00 0.46 0.00 74 1008.4
20260510013637 76 82 0.0 0.0 0.00 0.46 0.00 73 1008.4
20260510012647 77 85 0.0 2.6 0.00 0.46 0.00 72 1008.2
20260510011634 78 65 0.0 0.0 0.00 0.46 0.00 71 1008.1
20260510010622 79 89 0.0 0.0 0.00 0.46 0.00 69 1008.0
20260510005638 80 90 0.0 0.0 0.00 0.46 0.00 68 1007.9
20260510004626 80 92 0.0 0.9 0.00 0.46 0.00 66 1007.7
20260510003552 81 109 0.0 0.0 0.00 0.46 0.00 66 1007.7
20260510002603 82 126 1.7 7.0 0.00 0.46 0.00 64 1007.6
20260510001626 82 132 0.9 5.2 0.00 0.46 0.00 65 1007.6
20260510000611 82 92 1.7 5.2 0.00 0.46 0.00 63 1007.7
20260509235622 83 94 0.9 4.3 0.00 0.46 0.00 62 1007.9
20260509234553 83 84 0.9 5.2 0.00 0.46 0.00 60 1008.0
20260509233528 83 84 0.9 4.3 0.00 0.46 0.00 62 1008.0
20260509232517 83 83 0.0 1.7 0.00 0.46 0.00 62 1007.9
20260509230355 83 87 0.9 7.0 0.00 0.46 0.00 61 1007.9
20260509225329 84 96 1.7 7.0 0.00 0.46 0.00 62 1008.0
20260509215918 84 103 0.9 8.7 0.00 0.46 0.00 63 1007.8
20260509214920 83 46 2.6 7.8 0.00 0.46 0.00 63 1007.9
20260509213937 83 100 1.7 7.8 0.00 0.46 0.00 65 1007.9
20260509212938 83 68 1.7 8.7 0.00 0.46 0.00 66 1008.0
20260509211947 83 84 2.6 8.7 0.00 0.46 0.00 67 1008.2
20260509210939 83 92 2.6 8.7 0.00 0.46 0.00 67 1008.3
20260509210003 83 64 2.6 7.8 0.00 0.46 0.00 70 1008.5
20260509202755 82 49 1.7 7.0 0.00 0.46 0.00 69 1008.8
20260509201738 82 26 0.9 6.1 0.00 0.46 0.00 71 1008.9
20260509200710 82 80 0.0 6.1 0.00 0.46 0.00 71 1009.1
20260509195716 81 44 1.7 7.8 0.00 0.46 0.00 70 1009.2
20260509194741 81 57 0.9 0.0 0.00 0.46 0.00 71 1009.3
20260509193710 80 68 1.7 7.0 0.00 0.46 0.00 73 1009.5
20260509192641 80 63 1.7 8.7 0.00 0.46 0.00 75 1009.5
20260509185354 79 14 2.6 5.2 0.00 0.46 0.00 76 1009.7
20260509184401 79 58 2.6 8.7 0.00 0.46 0.00 77 1009.7
20260509183346 79 46 2.6 8.7 0.00 0.46 0.00 77 1009.9
20260509181223 77 27 1.7 7.0 0.00 0.46 0.00 79 1010.0
20260509180236 78 22 1.7 7.0 0.00 0.46 0.00 76 1010.2
20260509174105 77 0 2.6 7.0 0.00 0.46 0.00 79 1010.2
20260509173116 78 5 2.6 7.0 0.00 0.46 0.00 78 1010.2
20260509172128 78 5 0.9 7.8 0.00 0.46 0.00 78 1010.3
20260509171123 77 26 2.6 8.7 0.00 0.46 0.00 80 1010.4
20260509170106 77 0 3.5 8.7 0.00 0.46 0.00 80 1010.3
20260509165056 77 335 3.5 7.8 0.00 0.46 0.00 81 1010.4
20260509164054 76 13 2.6 7.0 0.00 0.46 0.00 82 1010.5
20260509163114 76 332 3.5 7.0 0.00 0.46 0.00 82 1010.5
20260509162041 76 355 1.7 8.7 0.00 0.48 0.00 82 1010.3
20260509161039 76 5 3.5 8.7 0.00 0.48 0.00 82 1010.2
20260509160103 75 329 1.7 7.0 0.00 0.48 0.00 82 1010.2
20260509155051 75 355 2.6 7.0 0.00 0.48 0.00 84 1010.1
20260509154107 74 22 2.6 7.0 0.00 0.48 0.00 86 1010.0
20260509153109 73 5 2.6 7.0 0.00 0.48 0.00 87 1010.1
20260509152059 73 43 1.7 5.2 0.00 0.50 0.00 88 1010.2
20260509151046 73 312 1.7 5.2 0.00 0.51 0.00 88 1010.2
20260509150058 73 355 1.7 5.2 0.00 0.51 0.00 89 1010.3
20260509145050 73 310 0.0 1.7 0.00 0.51 0.00 90 1010.2
20260509144101 72 337 0.9 3.5 0.00 0.51 0.00 91 1010.2
20260509143119 72 9 0.0 0.0 0.00 0.51 0.00 90 1010.2
20260509142056 72 44 0.0 0.0 0.00 0.51 0.00 91 1010.1
20260509141029 72 22 0.0 0.0 0.00 0.51 0.00 91 1010.2
20260509140048 72 111 0.0 0.0 0.00 0.51 0.00 91 1010.0
20260509135102 72 90 0.0 0.0 0.00 0.51 0.00 91 1010.1
20260509134108 72 91 0.0 1.7 0.00 0.51 0.00 90 1009.9